When you browse on this site, cookies collect data to enhance your experience and personalize the content and advertising you see.
Visit our Privacy Policy to learn more. By continuing to use the site, you agree to this use of cookies and data.
  • In Romania
  • List of Countries
  • For 7 days
  • Water Temperature
  • Satellite Maps
  • Weather Map
  • Weather Widgets
  • user-avatar
    Login

    Hourly Weather Buzau

    Today, 22 March, Friday

    Time Temperature Precipitation Wind Pressure Humidity
    00:00 +8°C° 0 mm 2 mps 765 mmHg 63%
    01:00 +9°C° 0 mm 1 mps 765 mmHg 62%
    02:00 +9°C° 0 mm 1 mps 765 mmHg 60%
    03:00 +8°C° 0 mm 1 mps 764 mmHg 60%
    04:00 +8°C° 0 mm 1 mps 764 mmHg 61%
    05:00 +8°C° 0 mm 1 mps 764 mmHg 61%
    06:00 +9°C° 0 mm 1 mps 764 mmHg 59%
    07:00 +10°C° 0 mm 1 mps 764 mmHg 56%
    08:00 +11°C° 0 mm 1 mps 765 mmHg 53%
    09:00 +12°C° 0 mm 1 mps 764 mmHg 49%
    10:00 +13°C° 0 mm 1 mps 764 mmHg 45%
    11:00 +14°C° 0 mm 2 mps 764 mmHg 41%
    12:00 +15°C° 0 mm 2 mps 763 mmHg 38%
    13:00 +16°C° 0 mm 2 mps 763 mmHg 35%
    14:00 +18°C° 0 mm 2 mps 762 mmHg 32%
    15:00 +18°C° 0 mm 2 mps 762 mmHg 32%
    16:00 +18°C° 0 mm 2 mps 761 mmHg 32%
    17:00 +19°C° 0 mm 1 mps 761 mmHg 32%
    18:00 +18°C° 0 mm 1 mps 761 mmHg 38%
    19:00 +15°C° 0 mm 2 mps 761 mmHg 43%
    20:00 +14°C° 0 mm 2 mps 761 mmHg 48%
    21:00 +13°C° 0 mm 2 mps 761 mmHg 52%
    22:00 +13°C° 0 mm 2 mps 761 mmHg 56%
    23:00 +11°C° 0 mm 3 mps 761 mmHg 60%

    Tomorrow, 23 March, Saturday

    Time Temperature Precipitation Wind Pressure Humidity
    00:00 +11°C° 0 mm 3 mps 761 mmHg 63%
    01:00 +11°C° 0 mm 3 mps 761 mmHg 66%
    02:00 +10°C° 0 mm 3 mps 761 mmHg 69%
    03:00 +10°C° 0 mm 3 mps 761 mmHg 70%
    04:00 +9°C° 0 mm 3 mps 761 mmHg 70%
    05:00 +9°C° 0 mm 3 mps 761 mmHg 71%
    06:00 +9°C° 0 mm 3 mps 761 mmHg 67%
    07:00 +9°C° 0 mm 3 mps 761 mmHg 64%
    08:00 +10°C° 0 mm 4 mps 761 mmHg 61%
    09:00 +10°C° 0 mm 3 mps 761 mmHg 58%
    10:00 +11°C° 0 mm 3 mps 761 mmHg 55%
    11:00 +12°C° 0 mm 3 mps 760 mmHg 52%
    12:00 +12°C° 0 mm 3 mps 760 mmHg 50%
    13:00 +12°C° 0 mm 3 mps 760 mmHg 47%
    14:00 +12°C° 0 mm 3 mps 760 mmHg 45%
    15:00 +12°C° 0 mm 3 mps 760 mmHg 43%
    16:00 +12°C° 0 mm 3 mps 759 mmHg 41%
    17:00 +12°C° 0 mm 3 mps 759 mmHg 39%
    18:00 +12°C° 0 mm 2 mps 760 mmHg 39%
    19:00 +10°C° 0 mm 2 mps 760 mmHg 40%
    20:00 +8°C° 0 mm 2 mps 760 mmHg 41%
    21:00 +8°C° 0 mm 2 mps 760 mmHg 41%
    22:00 +8°C° 0 mm 1 mps 761 mmHg 40%
    23:00 +7°C° 0 mm 1 mps 761 mmHg 40%

    Day after tomorrow, 24 March, Sunday

    Time Temperature Precipitation Wind Pressure Humidity
    00:00 +7°C° 0 mm 1 mps 761 mmHg 41%
    01:00 +7°C° 0 mm 1 mps 761 mmHg 42%
    02:00 +6°C° 0 mm 1 mps 761 mmHg 43%
    03:00 +6°C° 0 mm 1 mps 760 mmHg 44%
    04:00 +6°C° 0 mm 1 mps 760 mmHg 45%
    05:00 +5°C° 0 mm 1 mps 760 mmHg 47%
    06:00 +6°C° 0 mm 1 mps 760 mmHg 45%
    07:00 +7°C° 0 mm 1 mps 760 mmHg 44%
    08:00 +8°C° 0 mm 1 mps 760 mmHg 42%
    09:00 +9°C° 0 mm 1 mps 760 mmHg 39%
    10:00 +11°C° 0 mm 1 mps 760 mmHg 36%
    11:00 +12°C° 0 mm 2 mps 759 mmHg 32%
    12:00 +14°C° 0 mm 2 mps 759 mmHg 31%
    13:00 +14°C° 0 mm 3 mps 758 mmHg 30%
    14:00 +16°C° 0 mm 3 mps 758 mmHg 30%
    15:00 +16°C° 0 mm 3 mps 757 mmHg 31%
    16:00 +15°C° 0 mm 4 mps 757 mmHg 32%
    17:00 +15°C° 0 mm 4 mps 756 mmHg 33%
    18:00 +14°C° 0 mm 3 mps 756 mmHg 38%
    19:00 +12°C° 0 mm 3 mps 756 mmHg 42%
    20:00 +12°C° 0 mm 2 mps 757 mmHg 46%
    21:00 +10°C° 0 mm 2 mps 757 mmHg 48%
    22:00 +10°C° 0 mm 2 mps 756 mmHg 49%
    23:00 +9°C° 0 mm 2 mps 756 mmHg 50%

    25 March, Monday

    Time Temperature Precipitation Wind Pressure Humidity
    00:00 +9°C° 0 mm 2 mps 756 mmHg 51%
    01:00 +9°C° 0 mm 2 mps 756 mmHg 51%
    02:00 +9°C° 0 mm 2 mps 755 mmHg 52%
    03:00 +8°C° 0 mm 2 mps 755 mmHg 53%
    04:00 +9°C° 0 mm 1 mps 754 mmHg 54%
    05:00 +9°C° 0 mm 1 mps 754 mmHg 56%
    06:00 +10°C° 0 mm 1 mps 754 mmHg 55%
    07:00 +10°C° 0 mm 1 mps 754 mmHg 54%
    08:00 +11°C° 0 mm 1 mps 753 mmHg 52%
    09:00 +13°C° 0 mm 1 mps 753 mmHg 48%
    10:00 +15°C° 0 mm 2 mps 753 mmHg 44%
    11:00 +17°C° 0 mm 2 mps 753 mmHg 40%
    12:00 +17°C° 0 mm 2 mps 752 mmHg 41%
    13:00 +17°C° 0 mm 3 mps 752 mmHg 43%
    14:00 +17°C° 0 mm 4 mps 751 mmHg 44%
    15:00 +15°C° 0 mm 4 mps 751 mmHg 50%
    16:00 +14°C° 0 mm 4 mps 750 mmHg 56%
    17:00 +13°C° 0 mm 4 mps 750 mmHg 62%
    18:00 +13°C° 0.5 mm 4 mps 750 mmHg 66%
    19:00 +12°C° 0.5 mm 3 mps 750 mmHg 71%
    20:00 +12°C° 0.5 mm 2 mps 750 mmHg 75%
    21:00 +12°C° 0.2 mm 2 mps 750 mmHg 77%
    22:00 +12°C° 0.2 mm 2 mps 750 mmHg 78%
    23:00 +12°C° 0.2 mm 2 mps 750 mmHg 80%

    26 March, Tuesday

    Time Temperature Precipitation Wind Pressure Humidity
    00:00 +10°C° 0 mm 2 mps 750 mmHg 80%
    01:00 +10°C° 0 mm 2 mps 750 mmHg 80%
    02:00 +10°C° 0 mm 2 mps 750 mmHg 80%
    03:00 +10°C° 0 mm 2 mps 750 mmHg 78%
    04:00 +10°C° 0 mm 2 mps 749 mmHg 76%
    05:00 +10°C° 0 mm 1 mps 749 mmHg 75%
    06:00 +10°C° 0 mm 2 mps 750 mmHg 69%
    07:00 +10°C° 0 mm 3 mps 750 mmHg 63%
    08:00 +10°C° 0 mm 4 mps 750 mmHg 57%
    09:00 +10°C° 0.5 mm 4 mps 751 mmHg 57%
    10:00 +8°C° 0.5 mm 4 mps 751 mmHg 57%
    11:00 +8°C° 0.5 mm 4 mps 752 mmHg 58%
    12:00 +8°C° 0.6 mm 5 mps 752 mmHg 58%
    13:00 +8°C° 0.6 mm 5 mps 752 mmHg 59%
    14:00 +8°C° 0.6 mm 5 mps 753 mmHg 60%
    15:00 +8°C° 0 mm 5 mps 753 mmHg 57%
    16:00 +8°C° 0 mm 5 mps 753 mmHg 55%
    17:00 +8°C° 0 mm 5 mps 753 mmHg 52%
    18:00 +8°C° 0 mm 4 mps 754 mmHg 56%
    19:00 +7°C° 0 mm 4 mps 754 mmHg 60%
    20:00 +6°C° 0 mm 4 mps 755 mmHg 64%
    21:00 +5°C° 0 mm 4 mps 755 mmHg 64%
    22:00 +5°C° 0 mm 4 mps 756 mmHg 65%
    23:00 +5°C° 0 mm 4 mps 756 mmHg 66%

    27 March, Wednesday

    Time Temperature Precipitation Wind Pressure Humidity
    00:00 +4°C° 0 mm 4 mps 756 mmHg 67%
    01:00 +4°C° 0 mm 4 mps 757 mmHg 69%
    02:00 +4°C° 0 mm 4 mps 757 mmHg 70%
    03:00 +3°C° 0 mm 5 mps 757 mmHg 70%
    04:00 +2°C° 0 mm 5 mps 758 mmHg 71%
    05:00 +2°C° 0 mm 6 mps 758 mmHg 71%
    06:00 +3°C° 0 mm 6 mps 758 mmHg 67%
    07:00 +3°C° 0 mm 7 mps 759 mmHg 62%
    08:00 +4°C° 0 mm 7 mps 759 mmHg 58%
    09:00 +5°C° 0 mm 7 mps 759 mmHg 53%
    10:00 +6°C° 0 mm 7 mps 760 mmHg 47%
    11:00 +8°C° 0 mm 6 mps 760 mmHg 42%
    12:00 +9°C° 0 mm 6 mps 760 mmHg 39%
    13:00 +10°C° 0 mm 6 mps 759 mmHg 35%
    14:00 +10°C° 0 mm 6 mps 759 mmHg 32%
    15:00 +10°C° 0 mm 5 mps 759 mmHg 31%
    16:00 +10°C° 0 mm 5 mps 759 mmHg 31%
    17:00 +10°C° 0 mm 5 mps 760 mmHg 31%
    18:00 +10°C° 0 mm 4 mps 760 mmHg 35%
    19:00 +7°C° 0 mm 4 mps 761 mmHg 38%
    20:00 +7°C° 0 mm 3 mps 761 mmHg 42%
    21:00 +7°C° 0 mm 3 mps 762 mmHg 45%
    22:00 +5°C° 0 mm 3 mps 762 mmHg 47%
    23:00 +4°C° 0 mm 3 mps 762 mmHg 50%
    Show more